"Pseudo-MPEC" for C1HDKD2

Created 2019 Dec 3 23:07:15 UT using Find_Orb

Click here for an explanation of pseudo-MPECs

 
 Astrometry: 
     C1HDKD2  C2019 12 02.28100 04 09 53.73 +35 12 58.9    ~C27b 20.0 GVNEOCPG96
     C1HDKD2  C2019 12 02.28619 04 09 46.50 +35 11 34.0    ~C27b 20.3 GVNEOCPG96
     C1HDKD2  C2019 12 02.29147 04 09 39.11 +35 10 07.6    ~C27b 20.0 GVNEOCPG96
     C1HDKD2  C2019 12 02.39118 04 07 21.90 +34 42 29.1    ~C29q 20.0 GVNEOCPI52
     C1HDKD2  C2019 12 02.39382 04 07 18.35 +34 41 44.7    ~C29q 20.0 GVNEOCPI52
     C1HDKD2  C2019 12 02.39646 04 07 14.76 +34 41 00.8    ~C29q 19.4 GVNEOCPI52
     C1HDKD2  C2019 12 02.39909 04 07 11.27 +34 40 16.2    ~C29q 19.9 GVNEOCPI52
     C1HDKD2  C2019 12 03.09582 03 53 50.35 +31 32 06.8    ~C32q 20.3 GVNEOCPG96
     C1HDKD2  C2019 12 03.09651 03 53 49.54 +31 31 56.7    ~C32q 19.9 GVNEOCPG96
     C1HDKD2  C2019 12 03.09721 03 53 48.76 +31 31 46.4    ~C32q 20.0 GVNEOCPG96
     C1HDKD2  C2019 12 03.09790 03 53 47.91 +31 31 35.8    ~C32q 20.5 GVNEOCPG96
     C1HDKD2 KC2019 12 03^7y2bxyh4#_Y2xb^@Xl%(xJYuC2;=x2Zv1ehbx+Nvmfq%2va3tb]H36
     C1HDKD2 KC2019 12 03.7[#vCU.W,sZqbvIGJFnj=sm55BwMPh.VE^Sme,fyW(u'OyMCiDqH36
     C1HDKD2 KC2019 12 03E7,[3].=KMp[JGFWhEhptoMvCp@:;2vy]^=bj2UK]KnDJ\;D,;K(H36
     C1HDKD2 KC2019 12 038u#-75-ghE+-Pt5!Wl'%6Q;+PG!P9QSFBB-Astrometry/0,ip:pH36
     C1HDKD2 KC2019 12 03F4_!EQ($BZ?MdgN?=AppA8lN[krO;r=!redacted;t,V@Nj_VTL*K63
     C1HDKD2 KC2019 12 03tCKjmF]_t_/*h8Fa/!5Kakk6\+F6WP0!UUnU8.OQJ9[8+[S;\h@DK63
     C1HDKD2 KC2019 12 03Z24pqZ,Ndq)sLRN:WodJ*VVf0qHx7F2#Z(tni#X:`Q@lY^click,K63
     C1HDKD2 bC2019 12 037-pa7'qW7Bi4V7a8fU'hereChu]s;PSS\D`-_R4W/%yin3p$%1=kL01
     C1HDKD2 bC2019 12 03@xh.tK(iU5ClY]y5gOylOh:b^?go6264TxbZZR5oO'(2Z!HGforPL01
     C1HDKD2 pC2019 12 03GmY5bBN[cwqPg_^fTTp)5R;p-==^de=TM9\.W3Ya!EA@dANk1Sx'L01
     C1HDKD2 pC2019 12 03#+DACc`;q3.SuefTLALrbm\explanation^uT)-a'4egX`duF%l3L01
     C1HDKD2 KC2019 12 03.84714803 40 45.06 +28 16 27.6    ~C3L7 19.8 GVNEOCPJ95
     C1HDKD2 KC2019 12 03.85311703 40 38.98 +28 14 58.5    ~C3L7 20.1 GVNEOCPJ95
     C1HDKD2 KC2019 12 03.85930003 40 32.70 +28 13 26.2    ~C3L7 19.9 GVNEOCPJ95
     C1HDKD2 KC2019 12 03.86446603 40 27.43 +28 12 08.7    ~C3L7 19.8 GVNEOCPJ95

Station data:
(G96) Mt. Lemmon Survey  (N32.442754 W110.788720)  US/Arizona.  Observers T.
   A. Pruyne, B. M. Africano, E. J. Christensen, G. A. Farneth, D. C. Fuls,
   A. R. Gibbs, A. D. Grauer, H. Gröller, J. A. Johnson, R. A. Kowalski, S.
   M. Larson, G. J. Leonard, D. Rankin, R. L. Seaman, F. C. Shelly. 1.5-m
   reflector + 10K CCD.
(H36) Sandlot Observatory, Scranton  (N38.797693 W95.706400)  US/Kansas.
   Observer G. Hug. 0.56-m reflector + CCD.
(I52) Steward Observatory, Mt. Lemmon Station  (N32.442547 W110.788920)
   US/Arizona.  Observers T. A. Pruyne, B. M. Africano, E. J. Christensen, G.
   A. Farneth, D. C. Fuls, A. R. Gibbs, A. D. Grauer, H. Gröller, J. A.
   Johnson, R. A. Kowalski, S. M. Larson, G. J. Leonard, D. Rankin, R. L.
   Seaman, F. C. Shelly. 1.0-m reflector + CCD.
(J95) Great Shefford  (N51.474969 W1.447003)  UK.  Observer P. Birtwhistle.
   0.40-m f/6.0 Schmidt-Cassegrain + CCD.
(K63) G. Pascoli Observatory, Castelvecchio Pascoli  (N44.082410 E10.462000)
   Italy.
(L01) Višnjan Observatory, Tičan  (N45.290900 E13.749300)  Croatia.
   Observers K. Korlević, E. Pettarin. Measurer E. Pettarin. 1.0-m f/2.9
   reflector + CCD.

Orbital elements:  C1HDKD2
   Perihelion 2019 Aug 13.429170 +/- 0.0666 TT = 10:18:00 (JD 2458708.929170)
Epoch 2019 Dec  3.0 TT = JDT 2458820.5   Earth MOID: 0.0305   Me: 0.0856
M 156.62257749 +/- 0.022            (J2000 ecliptic)          AutoNEOCP
n   1.40379503 +/- 0.000666         Peri.   10.05112 +/- 0.006
a   0.78995117 +/- 0.00025          Node   252.99704 +/- 0.0022
e   0.3087958 +/- 0.000536          Incl.    7.74585 +/- 0.018
P   0.70/256.44d           H 26.7   G  0.15   U  7.8  
q 0.54601753 +/- 0.000596    Q 1.03388480 +/- 9.68e-5
From 26 observations 2019 Dec. 2-3 (38.0 hr); mean residual 0".43
Residuals in arcseconds: 
191202 G96  .21-  .13-    191203 G96  .39+  .51+    191203 L01  .04-  .05-    
191202 G96  .19+  .01-    191203 G96  .27-  .49+    191203 L01  .50+  .29-    
191202 G96  .09+  .21+    191203 H36  .76+  .06-    191203 L01  .53+  .16+    
191202 I52  .10-  .14-    191203 H36  .31+  .27+    191203 L01  .31+  .41+    
191202 I52  .02-  .12-    191203 H36  .40-  1.2-    191203 J95  .13-  .14+    
191202 I52  .49-  .41+    191203 H36  .34+  .12-    191203 J95  .11-  .12+    
191202 I52  .04+  .10+    191203 K63  .53-  .96-    191203 J95  .19+  .14+    
191203 G96  .18+  .39-    191203 K63  .60-  .82-    191203 J95  .16+  .19-    
191203 G96  .02+  .09+    191203 K63  1.4-  .48+    

Ephemerides (geocentric):
Date (UTC) HH   RA              Dec         delta   r     elong  mag " sig PA
---- -- -- --  -------------   -----------  ------ ------ -----  --- ---- ---
2019 12 03 23  03 38 51.981   +27 50 09.83  .03889 1.0234 165.3 20.5 .290 144
2019 12 04 00  03 38 12.733   +27 39 43.33  .03897 1.0234 165.2 20.5 .301 147
2019 12 04 01  03 37 33.784   +27 29 18.83  .03906 1.0235 165.1 20.5 .313 149
2019 12 04 02  03 36 55.133   +27 18 56.35  .03914 1.0235 165.0 20.5 .325 151
2019 12 04 03  03 36 16.777   +27 08 35.92  .03923 1.0236 164.8 20.5 .339 153
2019 12 04 04  03 35 38.713   +26 58 17.55  .03931 1.0236 164.7 20.5 .352 155
2019 12 04 05  03 35 00.939   +26 48 01.26  .03940 1.0237 164.6 20.5 .367 158
2019 12 04 06  03 34 23.452   +26 37 47.06  .03949 1.0237 164.4 20.5 .382 160
2019 12 04 07  03 33 46.250   +26 27 34.98  .03958 1.0238 164.3 20.6 .398 161
2019 12 04 08  03 33 09.330   +26 17 25.04  .03967 1.0239 164.2 20.6 .415 163
2019 12 04 09  03 32 32.690   +26 07 17.23  .03976 1.0239 164.0 20.6 .432 165
2019 12 04 10  03 31 56.328   +25 57 11.59  .03985 1.0240 163.9 20.6 .451 167
2019 12 04 11  03 31 20.240   +25 47 08.13  .03994 1.0240 163.7 20.6 .469 168
2019 12 04 12  03 30 44.425   +25 37 06.85  .04003 1.0241 163.6 20.6 .489 170
2019 12 04 13  03 30 08.880   +25 27 07.78  .04012 1.0241 163.5 20.6 .509 171
2019 12 04 14  03 29 33.602   +25 17 10.92  .04021 1.0242 163.3 20.6 .530 173
2019 12 04 15  03 28 58.591   +25 07 16.29  .04031 1.0242 163.2 20.6 .551 174
2019 12 04 16  03 28 23.842   +24 57 23.90  .04040 1.0243 163.0 20.6 .574 175
2019 12 04 17  03 27 49.354   +24 47 33.76  .04049 1.0243 162.8 20.7 .596 176
2019 12 04 18  03 27 15.124   +24 37 45.89  .04059 1.0244 162.7 20.7 .620 177
2019 12 04 19  03 26 41.151   +24 28 00.28  .04069 1.0244 162.5 20.7 .644 178
2019 12 04 20  03 26 07.432   +24 18 16.96  .04078 1.0245 162.4 20.7 .668 179
2019 12 04 21  03 25 33.965   +24 08 35.93  .04088 1.0246 162.2 20.7 .693   0
2019 12 04 22  03 25 00.747   +23 58 57.19  .04098 1.0246 162.1 20.7 .719   1
2019 12 04 23  03 24 27.776   +23 49 20.76  .04107 1.0247 161.9 20.7 .745   2
2019 12 05 00  03 23 55.051   +23 39 46.65  .04117 1.0247 161.7 20.7 .771   3
2019 12 05 01  03 23 22.568   +23 30 14.86  .04127 1.0248 161.6 20.7 .798   4
2019 12 05 02  03 22 50.326   +23 20 45.40  .04137 1.0248 161.4 20.8 .826   5
2019 12 05 03  03 22 18.324   +23 11 18.27  .04147 1.0249 161.2 20.8 .854   5
2019 12 05 04  03 21 46.557   +23 01 53.48  .04157 1.0249 161.1 20.8 .883   6
2019 12 05 05  03 21 15.026   +22 52 31.04  .04167 1.0250 160.9 20.8 .912   7
2019 12 05 06  03 20 43.726   +22 43 10.95  .04177 1.0250 160.7 20.8 .941   7
2019 12 05 07  03 20 12.658   +22 33 53.22  .04187 1.0251 160.6 20.8 .971   8
2019 12 05 08  03 19 41.817   +22 24 37.84  .04198 1.0251 160.4 20.8 1.00   9
2019 12 05 09  03 19 11.203   +22 15 24.83  .04208 1.0252 160.2 20.8 1.03   9
2019 12 05 10  03 18 40.813   +22 06 14.18  .04218 1.0252 160.0 20.8 1.06  10
2019 12 05 11  03 18 10.646   +21 57 05.91  .04229 1.0253 159.9 20.8 1.09  10
2019 12 05 12  03 17 40.699   +21 48 00.00  .04239 1.0253 159.7 20.9 1.13  11
2019 12 05 13  03 17 10.971   +21 38 56.47  .04250 1.0254 159.5 20.9 1.16  11
2019 12 05 14  03 16 41.459   +21 29 55.32  .04260 1.0254 159.4 20.9 1.19  12
2019 12 05 15  03 16 12.162   +21 20 56.54  .04271 1.0255 159.2 20.9 1.22  12
2019 12 05 16  03 15 43.078   +21 12 00.15  .04282 1.0255 159.0 20.9 1.26  13
2019 12 05 17  03 15 14.205   +21 03 06.13  .04292 1.0256 158.8 20.9 1.29  13
2019 12 05 18  03 14 45.541   +20 54 14.49  .04303 1.0256 158.7 20.9 1.33  13
2019 12 05 19  03 14 17.084   +20 45 25.24  .04314 1.0257 158.5 20.9 1.36  14
2019 12 05 20  03 13 48.832   +20 36 38.36  .04325 1.0257 158.3 20.9 1.39  14
2019 12 05 21  03 13 20.784   +20 27 53.87  .04336 1.0258 158.2 21.0 1.43  14
2019 12 05 22  03 12 52.938   +20 19 11.75  .04347 1.0258 158.0 21.0 1.46  15